Location: Ellerstadt
(49.4644°N, 8.2615°E)
Time: 19:19:20
(UTC+00:00)

Vanguard 1 - Pass Details

Date: 19 June 2021
Orbit: 651 x 3832 km, 34.2° (Epoch: 27 July)

Event Time Altitude Azimuth Distance (km) Brightness Sun altitude
Rises 23:51:35 0° 260° (W) 7,752 14.5 -16.9°
Reaches altitude 10° 23:57:40 10° 255° (WSW) 6,432 14.0 -16.8°
Maximum altitude 00:14:31 42° 194° (SSW) 3,162 12.1 -16.4°
Drops below altitude 10° 00:24:34 10° 128° (SE) 3,908 12.9 -16.0°
Sets 00:27:17 0° 121° (ESE) 4,559 13.3 -15.9°
